TimeAKDT,TemperatureF,Dew PointF,Humidity,Sea Level PressureIn,VisibilityMPH,Wind Direction,Wind SpeedMPH,Gust SpeedMPH,PrecipitationIn,Events,Conditions,WindDirDegrees,DateUTC
12:55 AM,12.7,7.7,80,29.75,10.0,Calm,Calm,-,N/A,,Clear,0,2012-10-12 08:55:00
1:55 AM,12.2,7.9,83,29.73,10.0,Calm,Calm,-,N/A,,Clear,0,2012-10-12 09:55:00
2:55 AM,12.0,8.1,84,29.71,10.0,North,3.5,-,N/A,,Clear,350,2012-10-12 10:55:00
3:55 AM,10.6,6.8,85,29.69,10.0,North,-9999.0,-,N/A,,Overcast,0,2012-10-12 11:55:00
4:55 AM,13.3,9.1,84,29.67,10.0,North,-9999.0,-,N/A,,Overcast,0,2012-10-12 12:55:00
5:55 AM,12.7,9.0,85,29.65,10.0,North,-9999.0,-,N/A,,Overcast,0,2012-10-12 13:55:00
6:55 AM,14.0,9.5,82,29.64,10.0,North,-9999.0,-,N/A,,Overcast,0,2012-10-12 14:55:00
7:55 AM,13.6,9.1,82,29.62,10.0,NNW,3.5,-,N/A,,Overcast,340,2012-10-12 15:55:00
8:55 AM,11.1,7.9,87,29.61,10.0,Calm,Calm,-,N/A,,Clear,0,2012-10-12 16:55:00
9:55 AM,13.5,9.0,82,29.59,10.0,Calm,Calm,-,0.00,,Clear,0,2012-10-12 17:55:00
10:55 AM,16.3,10.9,79,29.59,10.0,Calm,Calm,-,N/A,,Mostly Cloudy,0,2012-10-12 18:55:00
11:55 AM,20.3,12.9,73,29.57,10.0,North,2.3,-,N/A,,Mostly Cloudy,350,2012-10-12 19:55:00
12:55 PM,25.5,14.4,63,29.55,10.0,North,3.5,-,N/A,,Overcast,10,2012-10-12 20:55:00
1:55 PM,30.2,10.2,43,29.53,10.0,NNE,6.9,-,N/A,,Overcast,30,2012-10-12 21:55:00
2:55 PM,31.1,10.2,42,29.52,10.0,ENE,6.9,-,N/A,,Overcast,60,2012-10-12 22:55:00
3:24 PM,30.2,10.4,44,29.52,10.0,ENE,6.9,-,N/A,,Scattered Clouds,60,2012-10-12 23:24:00
3:55 PM,31.3,11.3,44,29.51,10.0,NNE,11.5,-,0.00,,Partly Cloudy,30,2012-10-12 23:55:00
4:55 PM,29.7,10.9,46,29.50,10.0,NE,12.7,-,N/A,,Partly Cloudy,50,2012-10-13 00:55:00
5:55 PM,27.3,11.1,51,29.50,10.0,North,-9999.0,-,N/A,,Clear,0,2012-10-13 01:55:00
6:55 PM,24.8,10.8,55,29.50,10.0,North,-9999.0,-,N/A,,Clear,0,2012-10-13 02:55:00
7:55 PM,23.0,10.2,58,29.50,10.0,North,5.8,-,N/A,,Scattered Clouds,10,2012-10-13 03:55:00
8:55 PM,23.5,10.8,58,29.49,10.0,NNE,9.2,-,N/A,,Overcast,20,2012-10-13 04:55:00
9:55 PM,24.8,10.6,55,29.49,10.0,NE,4.6,-,N/A,,Overcast,50,2012-10-13 05:55:00
10:55 PM,25.3,10.6,54,29.49,10.0,ENE,15.0,-,N/A,,Overcast,60,2012-10-13 06:55:00
11:55 PM,24.8,10.9,56,29.48,10.0,ENE,12.7,-,N/A,,Overcast,60,2012-10-13 07:55:00